Terug naar catalogus

BEIDOU 3M12

ActiefNavigatieMEO
NORAD 43603·PAYLOAD·🇨🇳 China

Gelanceerd Aug 24, 2018 vanaf Xichang Satellite Launch Center

Loading…

Volgende Passages (komende 24 uur)

TLE

VersSource: CelesTrak SupGP

Epoch: Sep 12, 2026, 00:00 UTC

1 43603C 18067B   26255.00000000  .00000000  00000+0  00000+0 0  2551
2 43603  54.1753 178.0620 0005433  27.1662 311.6624  1.86227223    13

Volg BEIDOU 3M12 in realtime met AllMySat

Download on the App Store